FORMOSAT-3 FM4 (29051 NORAD) Tracking and Keplerian Element Data

This shows tracking and keplerian element data for the satellite.

Feedback or suggestion? Click here.




ElementValue
Catalog29051
NameFORMOSAT-3 FM4
Epoch Orbit64213
Epoch Day198.92834986
Epoch Year2018
RAAN82.4257
Inclination72.0061
Eccentricity0.0067146
Argument of Perigee55.4952
Mean Anonmoly305.25
Mean Motion14.28684463
Decay Rate5E-08
L11 29051U 06011E 18198.92834986 .00000005 00000-0 17680-4 0 9992
L22 29051 72.0061 82.4257 0067146 55.4952 305.2500 14.28684463642134

Live tracking and technical data element details for FORMOSAT-3 FM4 (NORAD 29051). FORMOSAT-3 FM4 can be tracked NOW for your location showing map with azimuth and elevation plus other details from your city location.

Track the satellite on the map from your city or location and see movement details for azimuth, elevation, latitude, longitude, range, height, and movement on the map or in text.







IsCatalogInMostPopularTable: catalog: 29051, numindb: 37
Update: records affected: 1



GetName: 29051 FORMOSAT-3 FM4

Hit Count: updated at: Thu, 19 Jul 2018 03:57:49 GMT